AAA1953 YPDN-YPAD

Flight info

Callsign AAA1953
Flight time N/A
Altitude 33000
Route DN Y25 BEBUX Y83 GREGA J251 WHA H84 AD
Aircraft R722/M-SDFGRWY/S

Departure

Time 2026-05-05 04:38
Airport Darwin International Airport / RAAF Darwin (YPDN)

Arrival

Time N/A
Airport Adelaide International Airport (YPAD)
Time Latitude Longitude Altitude Speed Heading
2026-05-05 04:15 -12.40890 130.87738 95 ft 0 kts 19°
2026-05-05 04:23 -12.40883 130.87741 96 ft 0 kts 19°
2026-05-05 04:28 -12.40900 130.87736 96 ft 4 kts
2026-05-05 04:28 -12.40925 130.87738 93 ft 4 kts 343°
2026-05-05 04:29 -12.40948 130.87751 93 ft 4 kts 317°
2026-05-05 04:29 -12.40962 130.87772 96 ft 4 kts 286°
2026-05-05 04:29 -12.40964 130.87782 95 ft 0 kts 274°
2026-05-05 04:33 -12.40963 130.87777 95 ft 2 kts 274°
2026-05-05 04:33 -12.40961 130.87752 96 ft 5 kts 276°
2026-05-05 04:33 -12.40956 130.87715 93 ft 6 kts 278°
2026-05-05 04:34 -12.40957 130.87662 95 ft 10 kts 252°
2026-05-05 04:34 -12.41003 130.87606 93 ft 11 kts 211°
2026-05-05 04:34 -12.41069 130.87567 95 ft 11 kts 232°
2026-05-05 04:34 -12.41071 130.87494 93 ft 11 kts 285°
2026-05-05 04:35 -12.41048 130.87425 95 ft 11 kts 289°
2026-05-05 04:35 -12.41023 130.87350 95 ft 12 kts 289°
2026-05-05 04:35 -12.40996 130.87269 95 ft 12 kts 289°
2026-05-05 04:35 -12.40967 130.87182 96 ft 14 kts 289°
2026-05-05 04:36 -12.40948 130.87086 94 ft 13 kts 251°
2026-05-05 04:36 -12.40988 130.87068 94 ft 8 kts 187°
2026-05-05 04:36 -12.41071 130.87041 93 ft 12 kts 244°
2026-05-05 04:36 -12.41051 130.86964 93 ft 9 kts 280°
2026-05-05 04:37 -12.41076 130.86957 94 ft 5 kts 137°
2026-05-05 04:37 -12.41101 130.87032 94 ft 35 kts 106°
2026-05-05 04:37 -12.41265 130.87517 95 ft 107 kts 110°
2026-05-05 04:37 -12.41567 130.88398 92 ft 152 kts 109°
2026-05-05 04:38 -12.41956 130.89480 360 ft 164 kts 111°
2026-05-05 04:38 -12.42382 130.90568 886 ft 164 kts 111°
2026-05-05 04:38 -12.42757 130.91700 1272 ft 176 kts 97°
2026-05-05 04:38 -12.42649 130.93030 1392 ft 201 kts 83°
2026-05-05 04:39 -12.42668 130.94545 1651 ft 230 kts 100°
2026-05-05 04:39 -12.43090 130.96139 2835 ft 227 kts 105°
2026-05-05 04:39 -12.43487 130.97678 4339 ft 223 kts 102°
2026-05-05 04:39 -12.43827 130.99232 5590 ft 229 kts 101°
2026-05-05 04:40 -12.44190 131.00864 6127 ft 230 kts 102°
2026-05-05 04:40 -12.44550 131.02438 6328 ft 224 kts 102°
2026-05-05 04:40 -12.44894 131.03946 6707 ft 209 kts 102°
2026-05-05 04:40 -12.45218 131.05373 7159 ft 218 kts 103°
2026-05-05 04:41 -12.45582 131.06978 7725 ft 247 kts 103°
2026-05-05 04:41 -12.45995 131.08812 8193 ft 280 kts 103°
2026-05-05 04:41 -12.46445 131.10792 8619 ft 291 kts 103°
2026-05-05 04:41 -12.46908 131.12836 8982 ft 298 kts 103°
2026-05-05 04:42 -12.47379 131.14911 9319 ft 302 kts 103°
2026-05-05 04:42 -12.47853 131.17019 9697 ft 304 kts 103°
2026-05-05 04:42 -12.48330 131.19125 10104 ft 304 kts 104°
2026-05-05 04:42 -12.48808 131.21236 10503 ft 305 kts 103°
2026-05-05 04:43 -12.49125 131.22639 10766 ft 307 kts 103°
2026-05-05 04:43 -12.49790 131.25587 11348 ft 329 kts 103°
2026-05-05 04:43 -12.50138 131.27125 11652 ft 339 kts 103°
2026-05-05 04:43 -12.50868 131.30356 12284 ft 357 kts 103°
2026-05-05 04:44 -12.51242 131.32022 12602 ft 366 kts 103°
2026-05-05 04:44 -12.51824 131.34605 13085 ft 379 kts 102°
2026-05-05 04:44 -12.52424 131.37260 13573 ft 385 kts 102°
2026-05-05 04:44 -12.53030 131.39947 14003 ft 390 kts 102°
2026-05-05 04:45 -12.53646 131.42676 14417 ft 395 kts 102°
2026-05-05 04:45 -12.54264 131.45440 14831 ft 400 kts 102°
2026-05-05 04:45 -12.54894 131.48232 15249 ft 405 kts 103°
2026-05-05 04:45 -12.55529 131.51053 15689 ft 409 kts 103°
2026-05-05 04:46 -12.56162 131.53869 16115 ft 412 kts 103°
2026-05-05 04:46 -12.56807 131.56741 16543 ft 416 kts 103°
2026-05-05 04:46 -12.57456 131.59636 16996 ft 419 kts 103°
2026-05-05 04:46 -12.58113 131.62556 17438 ft 421 kts 103°
2026-05-05 04:47 -12.58771 131.65492 17892 ft 424 kts 103°
2026-05-05 04:47 -12.59429 131.68441 18314 ft 426 kts 103°
2026-05-05 04:47 -12.60097 131.71408 18720 ft 428 kts 103°
2026-05-05 04:47 -12.60765 131.74386 19116 ft 430 kts 103°
2026-05-05 04:48 -12.61432 131.77378 19526 ft 432 kts 103°
2026-05-05 04:48 -12.62105 131.80386 19931 ft 434 kts 103°
2026-05-05 04:48 -12.62771 131.83363 20341 ft 435 kts 104°
2026-05-05 04:48 -12.63448 131.86388 20756 ft 437 kts 104°
2026-05-05 04:49 -12.64125 131.89425 21174 ft 438 kts 104°
2026-05-05 04:49 -12.64803 131.92469 21607 ft 439 kts 104°
2026-05-05 04:49 -12.65486 131.95523 22043 ft 440 kts 104°
2026-05-05 04:49 -12.66167 131.98579 22483 ft 441 kts 104°
2026-05-05 04:50 -12.66850 132.01647 22928 ft 442 kts 105°
2026-05-05 04:50 -12.67533 132.04718 23390 ft 442 kts 105°
2026-05-05 04:50 -12.68219 132.07794 23773 ft 443 kts 105°
2026-05-05 04:50 -12.68903 132.10872 24151 ft 443 kts 105°
2026-05-05 04:51 -12.69606 132.13938 24540 ft 442 kts 108°
2026-05-05 04:51 -12.70737 132.16838 24928 ft 437 kts 121°
2026-05-05 04:51 -12.72389 132.19417 25332 ft 431 kts 134°
2026-05-05 04:51 -12.74450 132.21563 25749 ft 425 kts 145°
2026-05-05 04:52 -12.76863 132.23255 26174 ft 418 kts 156°
2026-05-05 04:52 -12.79538 132.24435 26613 ft 410 kts 168°
2026-05-05 04:52 -12.82285 132.25179 27048 ft 406 kts 173°
2026-05-05 04:52 -12.85053 132.25704 27484 ft 404 kts 176°
2026-05-05 04:53 -12.87829 132.26163 27920 ft 404 kts 174°
2026-05-05 04:53 -12.90553 132.26713 28364 ft 405 kts 173°
2026-05-05 04:53 -12.93306 132.27317 28799 ft 404 kts 173°
2026-05-05 04:53 -12.96062 132.27872 29246 ft 403 kts 174°
2026-05-05 04:54 -12.98816 132.28398 29705 ft 401 kts 174°
2026-05-05 04:54 -13.01555 132.28947 30128 ft 400 kts 173°
2026-05-05 04:54 -13.04284 132.29508 30517 ft 399 kts 173°
2026-05-05 04:54 -13.06996 132.30053 30910 ft 396 kts 174°
2026-05-05 04:55 -13.09701 132.30591 31306 ft 394 kts 174°
2026-05-05 04:55 -13.12382 132.31131 31715 ft 391 kts 173°
2026-05-05 04:55 -13.15006 132.31661 32102 ft 388 kts 174°
2026-05-05 04:55 -13.17649 132.32191 32507 ft 385 kts 174°
2026-05-05 04:56 -13.20268 132.32716 32881 ft 383 kts 173°
2026-05-05 04:56 -13.25609 132.33788 32907 ft 399 kts 173°
2026-05-05 04:57 -13.31188 132.34913 32925 ft 416 kts 173°
2026-05-05 04:57 -13.36969 132.36075 32917 ft 434 kts 173°
2026-05-05 04:58 -13.43013 132.37294 32923 ft 451 kts 173°
2026-05-05 04:58 -13.49277 132.38557 32916 ft 463 kts 173°
2026-05-05 04:59 -13.55658 132.39845 32915 ft 471 kts 173°
2026-05-05 04:59 -13.62135 132.41153 32920 ft 476 kts 173°
2026-05-05 05:00 -13.68670 132.42471 32918 ft 480 kts 173°
2026-05-05 05:00 -13.75222 132.43796 32917 ft 484 kts 173°
2026-05-05 05:01 -13.81858 132.45136 32936 ft 488 kts 173°
2026-05-05 05:01 -13.88553 132.46491 32922 ft 492 kts 173°
2026-05-05 05:02 -13.95292 132.47855 32923 ft 494 kts 173°
2026-05-05 05:02 -14.02064 132.49227 32929 ft 497 kts 173°
2026-05-05 05:03 -14.08867 132.50605 32922 ft 500 kts 173°
2026-05-05 05:03 -14.15668 132.51984 32933 ft 502 kts 173°
2026-05-05 05:04 -14.22538 132.53378 32934 ft 504 kts 173°
2026-05-05 05:04 -14.29434 132.54779 32941 ft 506 kts 173°
2026-05-05 05:05 -14.36349 132.56181 32942 ft 507 kts 173°
2026-05-05 05:05 -14.43281 132.57592 32945 ft 508 kts 173°
2026-05-05 05:06 -14.50213 132.59001 32947 ft 508 kts 173°
2026-05-05 05:06 -14.57123 132.60411 32940 ft 502 kts 173°
2026-05-05 05:07 -14.63952 132.61798 32933 ft 497 kts 174°
2026-05-05 05:07 -14.70672 132.63169 32933 ft 493 kts 174°
2026-05-05 05:08 -14.77373 132.64536 32935 ft 489 kts 174°
2026-05-05 05:08 -14.84019 132.65891 32949 ft 485 kts 174°
2026-05-05 05:09 -14.90627 132.67240 32932 ft 482 kts 174°
2026-05-05 05:09 -14.97209 132.68056 32938 ft 471 kts 184°
2026-05-05 05:10 -15.03757 132.68052 32947 ft 472 kts 184°
2026-05-05 05:10 -15.10301 132.68438 32955 ft 474 kts 183°
2026-05-05 05:11 -15.16894 132.68615 32950 ft 474 kts 184°
2026-05-05 05:11 -15.23497 132.68912 32950 ft 476 kts 183°
2026-05-05 05:12 -15.30110 132.69144 32948 ft 476 kts 184°
2026-05-05 05:12 -15.36742 132.69413 32956 ft 477 kts 184°
2026-05-05 05:13 -15.43383 132.69661 32956 ft 478 kts 184°
2026-05-05 05:13 -15.50038 132.69923 32961 ft 478 kts 184°
2026-05-05 05:14 -15.56691 132.70176 32966 ft 479 kts 184°
2026-05-05 05:14 -15.63358 132.70437 32962 ft 480 kts 184°
2026-05-05 05:15 -15.69989 132.70691 32966 ft 480 kts 184°
2026-05-05 05:15 -15.76672 132.70951 32970 ft 480 kts 184°
2026-05-05 05:16 -15.83352 132.71210 32969 ft 480 kts 184°
2026-05-05 05:16 -15.90038 132.71469 32970 ft 481 kts 184°
2026-05-05 05:17 -15.96726 132.71728 32967 ft 481 kts 184°
2026-05-05 05:17 -16.03415 132.71988 32968 ft 481 kts 184°
2026-05-05 05:18 -16.10110 132.72248 32979 ft 481 kts 184°
2026-05-05 05:18 -16.16761 132.72506 32976 ft 481 kts 184°
2026-05-05 05:19 -16.23459 132.72766 32984 ft 481 kts 184°
2026-05-05 05:19 -16.30150 132.73027 32984 ft 481 kts 184°
2026-05-05 05:20 -16.36845 132.73288 32990 ft 481 kts 184°
2026-05-05 05:20 -16.43553 132.73550 32981 ft 482 kts 184°
2026-05-05 05:21 -16.50226 132.73809 32983 ft 482 kts 184°
2026-05-05 05:21 -16.56942 132.74072 32990 ft 483 kts 184°
2026-05-05 05:22 -16.63660 132.74334 33007 ft 483 kts 184°
2026-05-05 05:22 -16.70396 132.74596 32993 ft 484 kts 185°
2026-05-05 05:23 -16.77130 132.74861 32999 ft 484 kts 185°
2026-05-05 05:23 -16.83863 132.75124 32997 ft 484 kts 185°
2026-05-05 05:24 -16.90611 132.75388 32997 ft 485 kts 185°
2026-05-05 05:24 -16.97311 132.75652 33002 ft 485 kts 185°
2026-05-05 05:25 -17.04073 132.76169 33005 ft 491 kts 178°
2026-05-05 05:25 -17.10825 132.77482 33007 ft 492 kts 177°
2026-05-05 05:26 -17.17586 132.78428 33007 ft 490 kts 179°
2026-05-05 05:26 -17.24349 132.79567 33011 ft 492 kts 178°
2026-05-05 05:27 -17.31065 132.80596 33012 ft 491 kts 179°
2026-05-05 05:27 -17.41221 132.82233 33012 ft 492 kts 179°
2026-05-05 05:28 -17.47998 132.83289 33016 ft 492 kts 179°
2026-05-05 05:28 -17.54768 132.84377 33017 ft 492 kts 179°
2026-05-05 05:29 -17.61558 132.85450 33017 ft 493 kts 179°
2026-05-05 05:29 -17.68296 132.86526 33020 ft 493 kts 179°
2026-05-05 05:30 -17.75089 132.87608 33020 ft 493 kts 179°
2026-05-05 05:30 -17.81880 132.88691 33025 ft 493 kts 179°
2026-05-05 05:31 -17.88675 132.89774 33029 ft 494 kts 179°
2026-05-05 05:31 -17.95475 132.90862 33025 ft 494 kts 179°
2026-05-05 05:32 -18.02224 132.91939 33023 ft 494 kts 179°
2026-05-05 05:32 -18.09023 132.93027 33023 ft 494 kts 179°
2026-05-05 05:33 -18.15824 132.94116 33027 ft 494 kts 179°
2026-05-05 05:33 -18.21483 132.95023 33029 ft 494 kts 179°
2026-05-05 05:34 -18.28288 132.96114 33028 ft 494 kts 179°
2026-05-05 05:34 -18.35092 132.97204 33052 ft 494 kts 179°
2026-05-05 05:35 -18.41902 132.98298 33032 ft 495 kts 179°
2026-05-05 05:35 -18.48713 132.99392 33041 ft 495 kts 179°
2026-05-05 05:36 -18.55522 133.00488 33041 ft 495 kts 179°
2026-05-05 05:36 -18.62334 133.01584 33041 ft 495 kts 179°
2026-05-05 05:37 -18.69106 133.02675 33032 ft 495 kts 179°
2026-05-05 05:37 -18.75912 133.03773 33030 ft 495 kts 179°
2026-05-05 05:38 -18.82716 133.04871 33053 ft 495 kts 179°
2026-05-05 05:38 -18.89531 133.05970 33044 ft 495 kts 180°
2026-05-05 05:39 -18.96351 133.07072 33046 ft 495 kts 180°
2026-05-05 05:39 -19.03164 133.08175 33051 ft 495 kts 180°
2026-05-05 05:40 -19.09980 133.09278 33042 ft 496 kts 180°
2026-05-05 05:40 -19.16762 133.10378 33049 ft 496 kts 180°
2026-05-05 05:41 -19.23595 133.11484 33052 ft 496 kts 180°
2026-05-05 05:41 -19.30422 133.12592 33054 ft 496 kts 180°
2026-05-05 05:42 -19.37217 133.13696 33055 ft 497 kts 180°
2026-05-05 05:42 -19.44053 133.14807 33059 ft 497 kts 180°
2026-05-05 05:43 -19.50894 133.15921 33063 ft 497 kts 180°
2026-05-05 05:43 -19.57737 133.17035 33057 ft 498 kts 180°
2026-05-05 05:44 -19.64595 133.18153 33061 ft 498 kts 180°
2026-05-05 05:44 -19.71450 133.19271 33062 ft 498 kts 180°
2026-05-05 05:45 -19.78309 133.20389 33091 ft 498 kts 180°
2026-05-05 05:45 -19.85150 133.21509 33067 ft 499 kts 180°
2026-05-05 05:46 -19.92020 133.22632 33069 ft 499 kts 180°
2026-05-05 05:46 -19.98891 133.23757 33064 ft 500 kts 180°
2026-05-05 05:47 -20.05771 133.24882 33066 ft 500 kts 180°
2026-05-05 05:47 -20.12652 133.26012 33071 ft 500 kts 180°
2026-05-05 05:48 -20.19549 133.27143 33075 ft 501 kts 180°
2026-05-05 05:48 -20.26436 133.28275 33082 ft 501 kts 180°
2026-05-05 05:49 -20.33287 133.29402 33080 ft 502 kts 180°
2026-05-05 05:49 -20.40186 133.30537 33082 ft 502 kts 180°
2026-05-05 05:50 -20.47089 133.31674 33084 ft 502 kts 180°
2026-05-05 05:50 -20.54007 133.32814 33085 ft 503 kts 180°
2026-05-05 05:51 -20.60916 133.33955 33090 ft 503 kts 180°
2026-05-05 05:51 -20.67840 133.35099 33092 ft 503 kts 180°
2026-05-05 05:52 -20.74761 133.36241 33088 ft 504 kts 180°
2026-05-05 05:52 -20.81686 133.37390 33094 ft 504 kts 180°
2026-05-05 05:53 -20.88623 133.38536 33089 ft 504 kts 180°
2026-05-05 05:53 -20.95514 133.39680 33092 ft 504 kts 180°
2026-05-05 05:54 -21.02463 133.40833 33094 ft 505 kts 180°
2026-05-05 05:54 -21.09407 133.41986 33094 ft 505 kts 180°
2026-05-05 05:55 -21.16347 133.43139 33089 ft 505 kts 180°
2026-05-05 05:55 -21.23311 133.44298 33101 ft 505 kts 180°
2026-05-05 05:56 -21.30264 133.45457 33100 ft 506 kts 180°
2026-05-05 05:56 -21.37172 133.46607 33101 ft 506 kts 180°
2026-05-05 05:57 -21.44132 133.47765 33099 ft 506 kts 180°
2026-05-05 05:57 -21.51097 133.48927 33102 ft 506 kts 180°
2026-05-05 05:58 -21.58055 133.50088 33108 ft 506 kts 180°
2026-05-05 05:58 -21.65011 133.51248 33114 ft 506 kts 180°
2026-05-05 05:59 -21.71937 133.52406 33113 ft 506 kts 180°
2026-05-05 05:59 -21.78895 133.53571 33114 ft 506 kts 180°
2026-05-05 06:00 -21.85849 133.54735 33131 ft 506 kts 180°
2026-05-05 06:00 -21.92809 133.55901 33124 ft 506 kts 180°
2026-05-05 06:01 -21.99764 133.57069 33121 ft 506 kts 180°
2026-05-05 06:01 -22.06718 133.58237 33123 ft 506 kts 180°
2026-05-05 06:02 -22.13688 133.59408 33123 ft 507 kts 180°
2026-05-05 06:02 -22.20652 133.60580 33130 ft 507 kts 179°
2026-05-05 06:03 -22.27616 133.61754 33130 ft 507 kts 180°
2026-05-05 06:03 -22.34541 133.62922 33125 ft 507 kts 179°
2026-05-05 06:04 -22.41515 133.64098 33127 ft 507 kts 179°
2026-05-05 06:04 -22.48487 133.65278 33132 ft 507 kts 179°
2026-05-05 06:05 -22.55454 133.66456 33138 ft 507 kts 179°
2026-05-05 06:05 -22.62426 133.67636 33143 ft 507 kts 179°
2026-05-05 06:06 -22.69355 133.68811 33141 ft 507 kts 179°
2026-05-05 06:06 -22.76329 133.69994 33159 ft 507 kts 179°
2026-05-05 06:07 -22.83301 133.71179 33144 ft 507 kts 178°
2026-05-05 06:07 -22.90281 133.72365 33151 ft 507 kts 178°
2026-05-05 06:08 -22.97249 133.73551 33175 ft 507 kts 178°
2026-05-05 06:08 -23.04213 133.74738 33153 ft 507 kts 178°
2026-05-05 06:09 -23.11140 133.75918 33159 ft 507 kts 178°
2026-05-05 06:09 -23.18105 133.77109 33159 ft 507 kts 178°
2026-05-05 06:10 -23.25078 133.78300 33171 ft 507 kts 178°
2026-05-05 06:10 -23.32045 133.79492 33167 ft 507 kts 178°
2026-05-05 06:11 -23.39009 133.80686 33167 ft 507 kts 178°
2026-05-05 06:11 -23.45973 133.81879 33171 ft 506 kts 178°
2026-05-05 06:12 -23.52933 133.83074 33181 ft 506 kts 178°
2026-05-05 06:12 -23.59850 133.84261 33183 ft 506 kts 178°
2026-05-05 06:13 -23.66813 133.85462 33192 ft 505 kts 177°
2026-05-05 06:13 -23.73754 133.86655 33197 ft 505 kts 177°
2026-05-05 06:14 -23.80656 133.88338 33198 ft 514 kts 168°
2026-05-05 06:14 -23.87357 133.91206 33198 ft 517 kts 163°
2026-05-05 06:15 -23.94043 133.93851 33183 ft 513 kts 168°
2026-05-05 06:15 -24.00770 133.96546 33187 ft 516 kts 164°
2026-05-05 06:16 -24.07492 133.99261 33183 ft 513 kts 166°
2026-05-05 06:16 -24.14219 134.01945 33184 ft 514 kts 165°
2026-05-05 06:17 -24.20926 134.04660 33184 ft 513 kts 166°
2026-05-05 06:17 -24.27638 134.07351 33188 ft 514 kts 165°
2026-05-05 06:18 -24.34339 134.10061 33190 ft 513 kts 166°
2026-05-05 06:18 -24.41010 134.12749 33195 ft 513 kts 165°
2026-05-05 06:19 -24.47720 134.15465 33188 ft 513 kts 166°
2026-05-05 06:19 -24.54428 134.18176 33195 ft 513 kts 165°
2026-05-05 06:20 -24.61090 134.20877 33195 ft 513 kts 165°
2026-05-05 06:20 -24.67793 134.23595 33194 ft 512 kts 165°
2026-05-05 06:21 -24.74492 134.26313 33197 ft 512 kts 165°
2026-05-05 06:21 -24.81180 134.29033 33200 ft 512 kts 165°
2026-05-05 06:22 -24.86748 134.31298 33201 ft 512 kts 165°
2026-05-05 06:22 -24.94514 134.34462 33203 ft 512 kts 165°
2026-05-05 06:23 -25.01211 134.37193 33205 ft 512 kts 165°
2026-05-05 06:23 -25.06765 134.39464 33203 ft 512 kts 165°
2026-05-05 06:24 -25.13447 134.42212 33194 ft 512 kts 165°
2026-05-05 06:24 -25.20124 134.44957 33207 ft 512 kts 165°
2026-05-05 06:25 -25.26808 134.47709 33204 ft 512 kts 165°
2026-05-05 06:25 -25.33445 134.50444 33204 ft 512 kts 165°
2026-05-05 06:26 -25.40121 134.53201 33207 ft 512 kts 165°
2026-05-05 06:26 -25.46809 134.55962 33208 ft 512 kts 165°
2026-05-05 06:27 -25.56825 134.60108 33209 ft 512 kts 165°
2026-05-05 06:28 -25.63463 134.62859 33206 ft 512 kts 164°
2026-05-05 06:28 -25.70140 134.65628 33207 ft 512 kts 164°
2026-05-05 06:29 -25.76820 134.68402 33211 ft 512 kts 164°
2026-05-05 06:29 -25.83493 134.71179 33213 ft 512 kts 164°
2026-05-05 06:30 -25.90124 134.73939 33216 ft 512 kts 164°
2026-05-05 06:30 -25.96794 134.76720 33217 ft 512 kts 164°
2026-05-05 06:31 -26.03459 134.79504 33215 ft 511 kts 164°
2026-05-05 06:31 -26.10125 134.82287 33215 ft 511 kts 164°
2026-05-05 06:32 -26.16788 134.85076 33215 ft 511 kts 164°
2026-05-05 06:32 -26.23449 134.87868 33215 ft 511 kts 164°
2026-05-05 06:33 -26.30103 134.90657 33219 ft 511 kts 164°
2026-05-05 06:33 -26.36757 134.93452 33235 ft 511 kts 164°
2026-05-05 06:34 -26.43397 134.96244 33219 ft 510 kts 163°
2026-05-05 06:34 -26.50037 134.99040 33222 ft 510 kts 163°
2026-05-05 06:35 -26.56642 135.01822 33239 ft 510 kts 163°
2026-05-05 06:35 -26.63275 135.04623 33218 ft 509 kts 163°
2026-05-05 06:36 -26.69904 135.07424 33227 ft 509 kts 163°
2026-05-05 06:36 -26.76545 135.10235 33224 ft 509 kts 163°
2026-05-05 06:37 -26.83172 135.13041 33230 ft 508 kts 163°
2026-05-05 06:37 -26.89747 135.15830 33225 ft 508 kts 163°
2026-05-05 06:38 -26.96361 135.18647 33231 ft 508 kts 163°
2026-05-05 06:38 -27.02964 135.21493 33229 ft 508 kts 163°
2026-05-05 06:39 -27.09540 135.24314 33236 ft 507 kts 163°
2026-05-05 06:39 -27.16137 135.27155 33232 ft 507 kts 163°
2026-05-05 06:40 -27.22725 135.29994 33230 ft 507 kts 163°
2026-05-05 06:40 -27.29311 135.32836 33226 ft 507 kts 163°
2026-05-05 06:41 -27.35893 135.35679 33231 ft 507 kts 163°
2026-05-05 06:41 -27.42441 135.38511 33238 ft 507 kts 163°
2026-05-05 06:42 -27.49025 135.41363 33227 ft 507 kts 163°
2026-05-05 06:42 -27.55610 135.44210 33228 ft 506 kts 164°
2026-05-05 06:43 -27.62283 135.46670 33231 ft 502 kts 169°
2026-05-05 06:43 -27.68955 135.49083 33233 ft 504 kts 166°
2026-05-05 06:44 -27.75606 135.51560 33236 ft 502 kts 167°
2026-05-05 06:44 -27.82268 135.53982 33236 ft 503 kts 166°
2026-05-05 06:45 -27.88878 135.56437 33229 ft 502 kts 167°
2026-05-05 06:45 -27.95535 135.58877 33234 ft 503 kts 167°
2026-05-05 06:46 -28.02192 135.61343 33232 ft 503 kts 167°
2026-05-05 06:46 -28.08814 135.63788 33233 ft 503 kts 167°
2026-05-05 06:47 -28.15466 135.66251 33232 ft 502 kts 167°
2026-05-05 06:47 -28.22108 135.68713 33233 ft 502 kts 167°
2026-05-05 06:48 -28.28756 135.71180 33237 ft 502 kts 167°
2026-05-05 06:48 -28.35399 135.73648 33252 ft 502 kts 167°
2026-05-05 06:49 -28.41996 135.76104 33235 ft 502 kts 167°
2026-05-05 06:49 -28.48653 135.78584 33237 ft 503 kts 167°
2026-05-05 06:50 -28.55311 135.81068 33239 ft 503 kts 167°
2026-05-05 06:50 -28.61965 135.83555 33237 ft 502 kts 167°
2026-05-05 06:51 -28.68571 135.86025 33238 ft 502 kts 167°
2026-05-05 06:51 -28.75211 135.88513 33238 ft 502 kts 167°
2026-05-05 06:52 -28.81852 135.91004 33239 ft 502 kts 167°
2026-05-05 06:52 -28.88493 135.93498 33236 ft 502 kts 167°
2026-05-05 06:53 -28.95132 135.95995 33242 ft 502 kts 167°
2026-05-05 06:53 -29.01765 135.98493 33234 ft 502 kts 166°
2026-05-05 06:54 -29.08358 136.00981 33237 ft 502 kts 166°
2026-05-05 06:54 -29.15006 136.03490 33239 ft 502 kts 166°
2026-05-05 06:55 -29.21637 136.05997 33243 ft 502 kts 166°
2026-05-05 06:55 -29.28287 136.08515 33244 ft 502 kts 166°
2026-05-05 06:56 -29.34918 136.11032 33262 ft 502 kts 166°
2026-05-05 06:56 -29.41507 136.13531 33246 ft 502 kts 166°
2026-05-05 06:57 -29.48142 136.16056 33247 ft 502 kts 166°
2026-05-05 06:57 -29.54781 136.18582 33250 ft 502 kts 166°
2026-05-05 06:58 -29.61416 136.21113 33248 ft 502 kts 166°
2026-05-05 06:58 -29.68018 136.23633 33248 ft 502 kts 166°
2026-05-05 06:59 -29.74665 136.26189 33250 ft 503 kts 165°
2026-05-05 06:59 -29.81302 136.28749 33251 ft 502 kts 165°
2026-05-05 07:00 -29.87933 136.31311 33250 ft 502 kts 165°